Provo, UT

2:34 PM MDT on October 20, 2017 (GMT -0600)
Provo Municipal

Weather History for KPVU - April, 2014

Change the Weather History Date:

Friday, April 25, 2014

  Actual Average Record
Temperature  
Mean Temperature 65 °F -  
Max Temperature 84 °F 60 °F 84 °F (2014)
Min Temperature 46 °F 38 °F 28 °F (1984)
Growing Degree Days 15 (Base 50)    
Moisture  
Dew Point 33 °F    
Average Humidity 46    
Maximum Humidity 67    
Minimum Humidity 16    
Precipitation  
Precipitation 0.00 in - - ()
Sea Level Pressure  
Sea Level Pressure 29.75 in    
Wind  
Wind Speed 5 mph (SSE)    
Max Wind Speed 23 mph    
Max Gust Speed 38 mph    
Visibility 11 miles    
Events Rain    
Averages and records for this station are not official NWS values.
T = Trace of Precipitation, MM = Missing Value Source: NWS Daily Summary

Daily Weather History Graph

Daily Weather History Graph

Search for Another Location

Airport or City:

Trip Planner

Search our weather history database for the weather conditions in past years. The results will help you decide how hot, cold, wet, or windy it might be!

Date:

Astronomy

Apr. 25, 2014 Rise Set
Actual Time 6:34 AM MDT 8:16 PM MDT
Civil Twilight 6:05 AM MDT 8:45 PM MDT
Nautical Twilight 5:30 AM MDT 9:20 PM MDT
Astronomical Twilight 4:53 AM MDT 9:57 PM MDT
Moon 4:24 AM MDT (4/25) 4:42 PM MDT (4/25)
Length of Visible Light 14h 39m
Length of Day
13h 41m
Waning Crescent, 15% of the Moon is Illuminated
Apr 25
Waning Crescent
Apr 29
New
May 6
First Quarter
May 14
Full
May 21
Last Quarter

Hourly Weather History & Observations

Time (MDT) Temp. Windchill Dew Point Humidity Pressure Visibility Wind Dir Wind Speed Gust Speed Precip Events Conditions
12:15 AM 53.6 °F - 32.0 °F 44% 29.87 in 10.0 mi Calm Calm - N/A   Mostly Cloudy
12:35 AM 51.8 °F - 28.4 °F 41% 29.87 in 10.0 mi ESE 4.6 mph - N/A   Scattered Clouds
12:55 AM 51.8 °F - 32.0 °F 47% 29.87 in 10.0 mi SE 3.5 mph - N/A   Scattered Clouds
1:15 AM 51.8 °F - 33.8 °F 50% 29.87 in 10.0 mi SE 4.6 mph - N/A   Mostly Cloudy
1:35 AM 53.6 °F - 28.4 °F 38% 29.87 in 10.0 mi South 5.8 mph - N/A   Mostly Cloudy
1:55 AM 51.8 °F - 28.4 °F 41% 29.86 in 10.0 mi South 6.9 mph - N/A   Mostly Cloudy
2:15 AM 51.8 °F - 30.2 °F 44% 29.86 in 10.0 mi Calm Calm - N/A   Partly Cloudy
2:35 AM 48.2 °F - 33.8 °F 58% 29.86 in 10.0 mi Calm Calm - N/A   Clear
2:55 AM 46.4 °F 43.5 °F 33.8 °F 62% 29.85 in 10.0 mi East 5.8 mph - N/A   Clear
3:15 AM 48.2 °F - 30.2 °F 50% 29.85 in 10.0 mi ESE 4.6 mph - N/A   Clear
3:35 AM 48.2 °F - 30.2 °F 50% 29.84 in 10.0 mi ESE 3.5 mph - N/A   Clear
3:55 AM 46.4 °F - 32.0 °F 57% 29.84 in 10.0 mi Calm Calm - N/A   Clear
4:15 AM 46.4 °F 43.5 °F 28.4 °F 50% 29.84 in 10.0 mi ESE 5.8 mph - N/A   Clear
4:35 AM 46.4 °F 43.5 °F 30.2 °F 53% 29.83 in 10.0 mi SE 5.8 mph - N/A   Clear
4:55 AM 46.4 °F 43.5 °F 30.2 °F 53% 29.83 in 10.0 mi SE 5.8 mph - N/A   Clear
5:15 AM 46.4 °F - 30.2 °F 53% 29.83 in 10.0 mi Calm Calm - N/A   Clear
5:35 AM 46.4 °F 43.5 °F 30.2 °F 53% 29.83 in 10.0 mi SSE 5.8 mph - N/A   Clear
5:55 AM 46.4 °F 42.9 °F 30.2 °F 53% 29.82 in 10.0 mi SE 6.9 mph - N/A   Clear
6:15 AM 48.2 °F - 28.4 °F 46% 29.82 in 10.0 mi SE 6.9 mph - N/A   Scattered Clouds
6:35 AM 48.2 °F - 30.2 °F 50% 29.82 in 10.0 mi SE 6.9 mph - N/A   Overcast
6:48 AM 46.4 °F - 30.2 °F 53% 29.82 in 15.0 mi Calm Calm - N/A   Mostly Cloudy
7:54 AM 48.2 °F - 30.2 °F 50% 29.80 in 15.0 mi Calm Calm - N/A   Mostly Cloudy
8:47 AM 51.8 °F - 28.4 °F 41% 29.80 in 15.0 mi West 4.6 mph - N/A   Mostly Cloudy
9:47 AM 55.4 °F - 35.6 °F 47% 29.79 in 15.0 mi NNW 4.6 mph - N/A   Mostly Cloudy
10:47 AM 57.2 °F - 35.6 °F 44% 29.76 in 15.0 mi WNW 8.1 mph - N/A   Mostly Cloudy
11:50 AM 62.6 °F - 32.0 °F 32% 29.73 in 15.0 mi South 3.5 mph - N/A   Mostly Cloudy
12:54 PM 66.2 °F - 28.4 °F 24% 29.71 in 15.0 mi WSW 5.8 mph - N/A   Overcast
1:54 PM 66.2 °F - 28.4 °F 24% 29.68 in 15.0 mi SW 19.6 mph - N/A   Overcast
2:50 PM 68.0 °F - 33.8 °F 28% 29.65 in 15.0 mi South 21.9 mph 31.1 mph N/A   Overcast
3:59 PM 84.2 °F - 33.8 °F 16% 29.63 in 10.0 mi South 12.7 mph 21.9 mph N/A   Overcast
4:55 PM 66.2 °F - 26.6 °F 23% 29.60 in 10.0 mi South 19.6 mph 28.8 mph N/A   Overcast
5:52 PM 60.8 °F - 33.8 °F 36% 29.64 in 10.0 mi South 12.7 mph 38.0 mph N/A Rain Light Rain
6:50 PM 57.2 °F - 39.2 °F 51% 29.63 in 4.0 mi SSE 23.0 mph 29.9 mph N/A Rain Rain
7:50 PM 57.2 °F - 35.6 °F 44% 29.64 in 6.0 mi South 9.2 mph - N/A Rain Rain
8:55 PM 57.2 °F - 35.6 °F 44% 29.64 in 10.0 mi South 8.1 mph - N/A   Mostly Cloudy
9:15 PM 55.4 °F - 35.6 °F 47% 29.64 in 10.0 mi South 8.1 mph - N/A   Mostly Cloudy
9:35 PM 55.4 °F - 37.4 °F 51% 29.63 in 10.0 mi ESE 9.2 mph - N/A   Overcast
9:55 PM 55.4 °F - 39.2 °F 54% 29.63 in 10.0 mi SE 5.8 mph - N/A   Overcast
10:15 PM 55.4 °F - 37.4 °F 51% 29.63 in 10.0 mi East 8.1 mph - N/A   Mostly Cloudy
10:35 PM 55.4 °F - 35.6 °F 47% 29.62 in 10.0 mi East 3.5 mph - N/A   Mostly Cloudy
11:15 PM 51.8 °F - 39.2 °F 62% 29.61 in 10.0 mi Calm Calm - N/A   Mostly Cloudy
11:35 PM 51.8 °F - 37.4 °F 58% 29.59 in 10.0 mi Calm Calm - N/A   Partly Cloudy
11:55 PM 51.8 °F - 41.0 °F 67% 29.59 in 10.0 mi West 10.4 mph 16.1 mph N/A   Clear